CW1172 Weather Reports


time (UTC)temp
C
wind
direction
speed
KPH
gust
KPH
rain 1hr
cm
rain 24hr
cm
rain mn
cm
humidity
%
barometer
mb
20260901023032 14 125 0.0 0.0 0.00 0.00 0.00 93 1006.2
20260901021531 14 125 0.0 0.0 0.00 0.00 0.00 93 1006.1
20260901020029 14 125 0.0 0.0 0.00 0.00 0.00 93 1006.1
20260901014529 14 124 0.0 0.0 0.00 0.00 0.00 93 1006.1
20260901013043 14 125 0.0 0.0 0.00 0.00 0.00 93 1006.0
20260901011536 14 125 0.0 0.0 0.00 0.00 0.00 93 1006.0
20260901010028 14 126 0.0 0.0 0.00 0.00 0.00 93 1005.9
20260901004528 14 126 0.0 0.0 0.00 0.00 0.00 93 1005.9
20260901003027 14 126 0.0 0.0 0.00 0.00 0.00 93 1005.8
20260901001532 13 125 0.0 0.0 0.00 0.00 0.00 93 1005.8
20260901000030 14 124 0.0 0.0 0.00 0.00 0.00 93 1005.8
20260831234526 14 123 0.0 0.0 0.00 0.00 0.00 92 1005.8
20260831233026 14 126 0.0 0.0 0.00 0.00 0.00 93 1005.7
20260831231525 14 126 0.0 0.0 0.00 0.00 0.00 93 1005.8
20260831230025 14 124 0.0 0.0 0.00 0.00 0.00 92 1005.8
20260831224525 14 126 0.0 0.0 0.00 0.00 0.00 92 1005.7
20260831223026 14 125 0.0 0.0 0.00 0.00 0.00 92 1005.6
20260831221522 14 125 0.0 0.0 0.00 0.00 0.00 92 1005.6
20260831220022 14 125 0.0 0.0 0.00 0.00 0.00 92 1005.6
20260831214525 15 125 0.0 0.0 0.00 0.00 0.00 92 1005.6
20260831213022 15 125 0.0 0.0 0.00 0.00 0.00 92 1005.6
20260831211519 15 126 0.0 0.0 0.00 0.00 0.00 92 1005.6
20260831210021 15 126 0.0 0.0 0.00 0.00 0.00 92 1005.6
20260831204520 15 126 0.0 0.0 0.00 0.00 0.00 91 1005.5
20260831203020 15 125 0.0 0.0 0.00 0.00 0.00 91 1005.5
20260831201521 15 125 0.0 0.0 0.00 0.00 0.00 91 1005.4
20260831200033 15 125 0.0 0.0 0.00 0.00 0.00 91 1005.5
20260831194525 15 126 0.0 0.0 0.00 0.00 0.00 91 1005.6
20260831193018 15 127 0.0 0.0 0.00 0.00 0.00 91 1005.5
20260831191521 15 126 0.0 0.0 0.00 0.00 0.00 91 1005.4
20260831190031 15 133 0.0 0.0 0.00 0.00 0.00 91 1005.2
20260831184519 15 144 0.0 0.0 0.00 0.00 0.00 90 1005.3
20260831183019 15 143 0.0 0.0 0.00 0.00 0.00 90 1005.3
20260831181526 15 143 0.0 0.0 0.00 0.00 0.00 90 1005.1
20260831180017 16 143 0.0 0.0 0.00 0.00 0.00 90 1005.1
20260831174517 16 144 0.0 0.0 0.00 0.00 0.00 89 1005.1
20260831173017 16 144 0.0 0.0 0.00 0.00 0.00 89 1005.1
20260831171517 16 144 0.0 0.0 0.00 0.00 0.00 88 1005.1
20260831170017 16 169 0.0 0.0 0.00 0.00 0.00 88 1005.1
20260831164519 16 171 0.0 0.0 0.00 0.00 0.00 87 1005.1
20260831163019 16 175 0.0 0.0 0.00 0.00 0.00 84 1005.1
20260831161515 17 176 0.0 0.0 0.00 0.00 0.00 81 1005.1
20260831160015 17 152 0.0 0.0 0.00 0.00 0.00 78 1005.0
20260831154515 18 165 0.0 0.0 0.00 0.00 0.00 76 1004.8
20260831153013 19 180 0.0 0.0 0.00 0.00 0.00 76 1004.8
20260831151514 20 226 0.0 0.0 0.00 0.00 0.00 73 1004.7
20260831150014 20 203 0.0 0.0 0.00 0.00 0.00 71 1004.7
20260831144513 21 194 0.0 0.0 0.00 0.00 0.00 70 1004.8
20260831143015 20 360 0.0 0.0 0.00 0.00 0.00 70 1004.8
20260831141508 20 132 0.0 0.0 0.00 0.00 0.00 72 1005.0
20260831140024 19 200 0.0 0.0 0.00 0.00 0.00 71 1005.1
20260831134509 20 236 0.0 0.0 0.00 0.00 0.00 70 1005.1
20260831133008 19 191 0.0 0.0 0.00 0.00 0.00 71 1005.3
20260831131507 18 192 0.0 0.0 0.00 0.00 0.00 75 1005.4
20260831130008 18 360 0.0 0.0 0.00 0.00 0.00 76 1005.4
20260831124509 18 200 0.0 0.0 0.00 0.00 0.00 75 1005.4
20260831123007 18 207 0.0 0.0 0.00 0.00 0.00 73 1005.4
20260831121509 18 244 0.0 0.0 0.00 0.00 0.00 73 1005.3
20260831120015 18 203 0.0 0.0 0.00 0.00 0.00 75 1005.4
20260831114508 19 198 0.0 0.0 0.00 0.00 0.00 73 1005.4
20260831113006 19 205 0.0 0.0 0.00 0.00 0.00 74 1005.3
20260831111506 18 239 0.0 0.0 0.00 0.00 0.00 74 1005.3
20260831110005 18 161 0.0 0.0 0.00 0.00 0.00 77 1005.4
20260831104509 17 194 0.0 0.0 0.00 0.00 0.00 78 1005.4
20260831103004 18 225 0.0 0.0 0.00 0.00 0.00 75 1005.5
20260831101503 18 284 0.0 0.0 0.00 0.00 0.00 78 1005.4
20260831100109 17 360 0.0 0.0 0.00 0.00 0.00 79 1005.4
20260831094557 17 230 0.0 0.0 0.00 0.00 0.00 79 1005.3
20260831093058 17 207 0.0 0.0 0.00 0.00 0.00 78 1005.2
20260831091554 16 214 0.0 0.0 0.00 0.00 0.00 81 1005.1
20260831084559 16 360 0.0 0.0 0.00 0.00 0.00 81 1005.2
20260831083052 16 211 0.0 0.0 0.00 0.00 0.00 81 1005.2
20260831081551 16 225 0.0 0.0 0.00 0.00 0.00 82 1005.1
20260831080052 16 360 0.0 0.0 0.00 0.00 0.00 83 1005.1
20260831074552 15 260 0.0 0.0 0.00 0.00 0.00 83 1005.1
20260831073050 15 234 0.0 0.0 0.00 0.00 0.00 84 1005.0
20260831071549 15 188 0.0 0.0 0.00 0.00 0.00 85 1004.9
20260831070055 15 198 0.0 0.0 0.00 0.00 0.00 85 1004.9
20260831064547 15 203 0.0 0.0 0.00 0.00 0.00 85 1005.0
20260831063050 15 257 0.0 0.0 0.00 0.00 0.00 85 1004.9
20260831061544 15 198 0.0 0.0 0.00 0.00 0.00 85 1004.7
20260831060042 15 257 0.0 0.0 0.00 0.00 0.00 85 1004.7
20260831054544 15 229 0.0 0.0 0.00 0.00 0.00 86 1004.6
20260831053051 15 190 0.0 0.0 0.00 0.00 0.00 87 1004.5
20260831051543 15 225 0.0 0.0 0.00 0.00 0.00 87 1004.4
20260831050044 15 360 0.0 0.0 0.00 0.00 0.00 88 1004.4
20260831044539 15 184 0.0 0.0 0.00 0.00 0.00 88 1004.4
20260831043041 15 202 0.0 0.0 0.00 0.00 0.00 88 1004.4
20260831041539 15 236 0.0 0.0 0.00 0.00 0.00 87 1004.3
20260831040038 15 206 0.0 0.0 0.00 0.00 0.00 87 1004.3
20260831034541 15 234 0.0 0.0 0.00 0.00 0.00 87 1004.3
20260831033057 15 223 0.0 0.0 0.00 0.00 0.00 87 1004.3
20260831031536 15 360 0.0 0.0 0.00 0.00 0.00 87 1004.2
20260831030036 15 192 0.0 0.0 0.00 0.00 0.00 88 1004.2
20260831024538 15 194 0.0 0.0 0.00 0.00 0.00 88 1004.0